User: anonymous   Login
Location: El Centro
(32.7920°N, 115.5620°W)
Time: 05:17:26
(UTC-07:00)
Language:

Hamsat - Orbit

View from above orbital plane
View from above orbital plane
View from above satellite
View from above satellite

Ground track
Ground track

The orbit data is extracted from the following two-line orbital elements,

1 28650U 05017B   15248.20123711  .00000798  00000-0  93030-4 0  9994
2 28650  97.5810 237.0759 0025424 124.4044 235.9582 14.87606812559345
Epoch (UTC): 05 September 2015 04:49:46
Eccentricity: 0.0025424
inclination: 97.5810°
perigee height: 587 km
apogee height: 623 km
right ascension of ascending node: 237.0759°
argument of perigee: 124.4044°
revolutions per day: 14.87606812
mean anomaly at epoch: 235.9582°
orbit number at epoch: 55934

The dashed part of the orbit path shows where the satellite is in the earth's shadow,  

DLR